Flag for Switzerland Weather past 2 weeks in Zug, Zug, Switzerland

Now
66 °F

Mild.


Feels Like: 66 °F
Forecast: 55 / 69 °F
Wind: 3 mph from Southwest

Location: Zurich Town / Ville.

Current Time: Sep 20, 2014 at 12:38:53 PM

Latest Report: Sep 20, 2014 at 12:00 PM


Visibility: N/A

Pressure: 30.01 "Hg

Humidity: 80%

Dew point: 60 °F

Location of ZugLocation

Historic Weather in Zug — Graph

°F

Zug temperature yesterday

Maximum temperature yesterday: 72 °F (at 3:00 PM)
Minimum temperature yesterday: 59 °F (at 7:00 AM)
Average temperature yesterday: 65 °F

Past Weeks' High & Low Weather Summary

 TemperatureHumidityPressure
High80 °F (Sep 8, 3:00 PM)100% (Sep 16, 7:00 AM)30.16 "Hg (Sep 16, 7:00 AM)
Low49 °F (Sep 12, 6:00 AM)47% (Sep 7, 4:00 PM)29.81 "Hg (Sep 17, 5:00 PM)
Average62 °F83%29.97 "Hg
* Reported Sep 5 11:00 AM — Sep 20 11:00 AM, Zug, Weather by CustomWeather, © 2014

Note: Actual official high and low records may vary slightly from our data, if they occured in-between our weather recording intervals... More about our weather records

Advertising

Zug weather history for previous 24 hours

 ConditionsComfort  
Time TempWeatherWind HumidityBarometerVisibility
11:00 AM
Sep 20
66 °FMild.3 mph89%30.01 "HgN/A
10:00 AM63 °FMild.1 mph92%30.01 "HgN/A
9:00 AM61 °FCool.2 mph95%30.01 "HgN/A
8:00 AM61 °FScattered clouds.3 mph95%30.01 "HgN/A
7:00 AM60 °FCool.3 mph95%30.00 "HgN/A
6:00 AM60 °FCool.3 mph96%29.99 "HgN/A
5:00 AM60 °FCool.1 mph97%30.00 "HgN/A
4:00 AM61 °FCool.3 mph93%30.01 "HgN/A
3:00 AM61 °FCool.1 mph95%30.00 "HgN/A
2:00 AM61 °FCool.1 mph95%30.00 "HgN/A
1:00 AM61 °FCool.3 mph95%30.00 "HgN/A
12:00 AM62 °FCool.6 mph87%30.00 "HgN/A
11:00 PM
Sep 19
62 °FCool.3 mph94%30.00 "HgN/A
10:00 PM64 °FMild.1 mph81%29.98 "HgN/A
9:00 PM65 °FMild.1 mph81%29.97 "HgN/A
8:00 PM65 °FPassing clouds.1 mph79%29.96 "HgN/A
7:00 PM68 °FMild.1 mph74%29.95 "HgN/A
6:00 PM71 °FMild.3 mph64%29.92 "HgN/A
5:00 PM71 °FMild.2 mph66%29.93 "HgN/A
4:00 PM71 °FMild.3 mph68%29.93 "HgN/A
3:00 PM72 °FMild.3 mph58%29.92 "HgN/A
2:00 PM71 °FOvercast.5 mph67%29.93 "HgN/A
1:00 PM71 °FMild.3 mph62%29.94 "HgN/A
12:00 PM70 °FMild.2 mph67%29.93 "HgN/A
Weather by CustomWeather, © 2014

See weather overviewHow to use our weather pages